This is the latest recevied weather packets stored in our database for station/object K9UO. If no packets are shown the sender has not sent any weather packets the latest 1 day(s).
| Time | Temp. | Humidity | Pressure | Rain* | Wind** | Luminosity | Snow |
|---|---|---|---|---|---|---|---|
| 1778013925 | 11.11° C | 1% | 1007.1 hPa | 0.51 mm | 3.13 m/s, 355° | - | - |
| 1778013029 | 11.11° C | 1% | 1006.8 hPa | 0.76 mm | 0.45 m/s, 14° | - | - |
| 1778012118 | 11.11° C | 1% | 1006.8 hPa | 1.52 mm | 0 m/s | - | - |
| 1778011212 | 11.11° C | 1% | 1006.7 hPa | 1.52 mm | 0 m/s | - | - |
| 1778010307 | 11.11° C | 1% | 1007.3 hPa | 2.03 mm | 0 m/s | - | - |
| 1778009403 | 11.11° C | 1% | 1007.6 hPa | 1.52 mm | 0.45 m/s, 9° | - | - |
| 1778008568 | 11.11° C | 1% | 1007.7 hPa | 0.76 mm | 0.89 m/s, 13° | - | - |
| 1778007661 | 11.11° C | 1% | 1007.5 hPa | 0.51 mm | 2.68 m/s, 9° | - | - |
| 1778006750 | 10.56° C | 1% | 1007.5 hPa | 0 mm | 0.45 m/s, 5° | - | - |
| 1778005869 | 10.56° C | 1% | 1007.3 hPa | 0 mm | 1.34 m/s, 5° | - | - |
| 1778004941 | 10° C | 1% | 1007.5 hPa | 0 mm | 0.89 m/s, 5° | - | - |
| 1778004038 | 10° C | 1% | 1007.8 hPa | 0 mm | 0.89 m/s, 351° | - | - |
| 1778003137 | 10° C | 1% | 1007.7 hPa | 0 mm | 0.89 m/s, 355° | - | - |
| 1778002237 | 10.56° C | 1% | 1007.5 hPa | 0 mm | 1.34 m/s, 5° | - | - |
| 1778001336 | 10.56° C | 1% | 1007.8 hPa | 0 mm | 2.24 m/s, 16° | - | - |
| 1778000422 | 11.67° C | 1% | 1007.6 hPa | 0 mm | 2.24 m/s, 355° | - | - |
| 1777999515 | 12.22° C | 1% | 1007.7 hPa | 0.25 mm | 2.24 m/s, 16° | - | - |
| 1777998611 | 14.44° C | 1% | 1007.5 hPa | 0.25 mm | 1.79 m/s, 234° | - | - |
| 1777997706 | 13.89° C | 1% | 1007.7 hPa | 0.25 mm | 0.89 m/s, 250° | - | - |
| 1777996802 | 13.33° C | 1% | 1007.8 hPa | 0.25 mm | 1.34 m/s, 266° | - | - |
| 1777995961 | 13.33° C | 1% | 1007.9 hPa | 0 mm | 2.24 m/s, 360° | - | - |
| 1777995053 | 13.33° C | 1% | 1007.8 hPa | 0 mm | 2.68 m/s, 236° | - | - |
| 1777994148 | 13.33° C | 1% | 1007.7 hPa | 0 mm | 2.68 m/s, 229° | - | - |
| 1777993244 | 13.89° C | 1% | 1007.3 hPa | 0 mm | 2.24 m/s, 247° | - | - |
| 1777992344 | 13.89° C | 1% | 1007 hPa | 0 mm | 2.24 m/s, 209° | - | - |
* Rain latest hour (hover to see other rain measurements)
** Current wind speed in m/s (hover to see current wind gust speed)